DECAYED

STARLINK-6201, 56486 (Decayed)

Orbit data source: Space-Track

STARLINK-6201, 56486 was a payload satellite owned by SpaceX/Seattle (US) in LEO that was launched on Wed, 10 May 2023 UTC via an FALCON 9 launch vehicle from the Air Force Western Test Range (AFWTR). Payload-class satellites include a variety of spacecraft equipped with specific instruments for various scientific and technological missions. These include communications satellites like Starlink; space stations such as the ISS; scientific satellites like the Hubble; Earth observation satellites from companies like Planet Labs, Umbra, and HawkEye 360; GPS; miniature CubeSats for education and research; and military/defense satellites.

Not visible in the next 10 days
Identifier
56486, 2023-064AQ
Orbit
Decayed
Country
Flag of USUS
Related business
Manufacturer
SpaceX/Seattle
Mission
Decayed Commercial Communications
Bus & Motor
STARLINK, Unknown motor
Mass
305 kg wet, ~290 kg dry
Launch date (UTC)
2023-05-10 (3 years ago)
Launch vehicle
FALCON 9
Launch site
Air Force Western Test Range (AFWTR)
Object type
Payload
Rocket body
Debris
Shape & HBR
Box + 1 Pan, 10.1 m
Radar Cross Section
11.087 m², Large (>1 m²)

Expand to show TLE details & history
Last TLE update: 3 months ago

TLE from 3 months ago
0 STARLINK-6201
1 56486U 23064AQ  26080.83126470  .09621975  44610-5  22228-3 0  9999
2 56486  69.9751  76.4153 0007508 259.8836 100.1551 16.45928906157977
Epoch: 2026-03-21T19:57Z
TLE epoch observation values (Epoch: 2026-03-21T19:57:01.270Z)
Latitude
-0°
Longitude
-42.18633°
Altitude
153.525 km
Speed
7.814 km/s
True Right ascension
05h 05m 39s
True Declination
0° 00' 00"
Sunlit
Object was in daylight at epoch
Visualization orbit readout
Latitude
Unknown
Longitude
Unknown
Altitude
Unknown
Speed
Unknown
Apparent Right ascension
Unknown
Apparent Declination
Unknown
Sunlit
N/A
Visualization observer readout
Local Sidereal Time
00:31:41
Azimuth
Unknown
Elevation
Unknown
Doppler factor
Unknown
Orbital elements
Apogee altitude
152.796 km
Perigee altitude
142.996 km
Semi-major axis
6,526.033 km
Eccentricity
0.00075
Inclination
69.9751°
RAAN
76.4153°
Arg. of periapsis
259.8836°
True anomaly
100.23977°
Mean anomaly
100.1551°
Eccentric anomaly
100.19744°
Mean motion
4.11689 °/min
Orbital period
87.44 mins
BSTAR
0.00022228
Loading maneuver chart data...
Computing Atmospheric mass density...
Loading historical data...
Loading historical data...
Loading historical data...
Loading historical data...
Loading historical data...
Loading historical data...
Loading historical data...

Documentation

Showing up to 5 results
|